Location: Unspecified
(0.0000°N, 0.0000°E)
Time: 10:54:30
(UTC+00:00)

NOSS 3-1 (A) - Pass Details

Date: 23 April 2019
Orbit: 778 x 1434 km, 63.4° (Epoch: 13 May)

Event Time Altitude Azimuth Distance (km) Brightness Sun altitude
Rises 04:21:51 0° 350° (N) 4,373 6.9 -23.6°
Reaches altitude 10° 04:24:49 10° 356° (N) 3,455 6.4 -22.8°
Maximum altitude 04:33:04 48° 68° (ENE) 1,804 5.3 -20.8°
Drops below altitude 10° 04:41:22 10° 139° (SE) 3,496 6.7 -18.8°
Sets 04:44:22 0° 144° (SE) 4,429 7.2 -18.1°
